[[{"header":{"parameterUnit":"m.s-1","parameterCategory":1,"la1":30.2991,"la2":30.254,"lo1":-89.0895,"lo2":-89.0444,"dy":0.0017,"dx":0.0017,"nx":28,"ny":28,"refTime":"2024-07-09T21:00:00:Z","depth":0,"parameterNumber":2,"parameterNumberName":"U-component_of_WINDS"},"data":[0,0,0,0,0,0,0,0,0,0,0,0,0,0,0,0,0,0,0,0,0,0,0,0,0,0,0,0,0,0,0,0,0,0,0,0,0,0,0,0,0,0,0,0,0,0,0,0,0,0,0,0,0,0,0,0,0,0,3.4674,3.4675,0,3.4799,3.4801,3.4802,3.4775,3.4773,3.4771,3.4769,3.4903,3.4908,3.4914,0,0,0,0,0,0,0,0,0,0,0,0,0,3.4416,3.4421,3.4673,3.4675,3.4677,3.4799,3.4801,3.4802,3.4776,3.4773,3.477,3.4767,3.4901,3.4908,3.4915,0,0,0,0,0,0,0,0,0,0,0,0,0,3.4533,3.4422,3.4673,3.4678,3.468,3.4799,3.4801,3.4803,3.4776,3.4773,3.4769,3.4766,3.4899,3.4907,3.4916,3.5039,0,0,3.4942,3.4946,0,0,0,0,0,0,0,0,3.4527,3.4543,3.4676,3.4678,3.468,3.4768,3.4759,3.4882,3.4777,3.474,3.4768,3.4764,3.4861,3.4873,3.4904,3.5046,3.5051,3.4943,3.4948,3.4952,3.4954,0,0,0,0,0,0,0,3.4519,3.4537,3.4723,3.4678,3.468,3.4676,3.4688,3.4782,3.4819,3.4743,3.4741,3.4756,3.4862,3.4896,3.4907,3.5053,3.4943,3.495,3.4956,3.4959,3.5303,3.5307,0,0,0,0,0,0,3.4508,3.4531,3.4719,3.4727,3.4593,3.4683,3.4697,3.4743,3.4818,3.4826,3.4759,3.4754,3.4883,3.4897,3.4912,3.5061,3.4952,3.496,3.4965,3.5299,3.5304,3.5308,0,0,0,0,0,0,3.4502,3.4525,3.4714,3.4628,3.4652,3.4691,3.4743,3.4748,3.4782,3.483,3.4837,3.4787,3.4881,3.49,3.5007,3.5066,3.4964,3.4972,3.5295,3.5301,3.5306,3.5362,0,0,0,0,0,0,3.4495,3.4523,3.4569,3.463,3.4657,3.4806,3.4747,3.4753,3.4796,3.4791,3.4858,3.4866,3.4879,3.4995,3.5016,3.5076,3.4978,3.529,3.5297,3.5304,3.5355,3.5369,3.5381,0,0,0,0,0,3.4486,3.4581,3.4572,3.4595,3.4715,3.481,3.4826,3.4838,3.4801,3.4848,3.4879,3.4863,3.5056,3.5006,3.503,3.5093,3.5286,3.5295,3.5304,3.5349,3.5366,3.538,0,0,0,0,0,0,3.4528,3.4589,3.4579,3.4696,3.4748,3.4805,3.4865,3.4855,3.492,3.4913,3.4927,3.4943,3.5052,3.5084,3.5027,3.5217,3.5166,3.518,3.5192,3.5209,3.5221,3.5212,3.4985,0,0,0,0,0,3.4551,3.4621,3.4671,3.477,3.4796,3.4826,3.4868,3.4873,3.4927,3.495,3.4989,3.5044,3.5117,3.5165,3.5234,3.5359,3.5374,3.5415,3.5428,3.5438,3.545,3.5519,3.5538,3.5338,3.5338,3.5337,0,0,3.4599,3.4641,3.4685,3.4779,3.482,3.4893,3.4845,3.4925,3.498,3.4963,3.5066,3.5097,3.516,3.5276,3.533,3.5306,3.5508,3.5449,3.5457,3.5464,3.553,3.5549,3.5566,3.5344,3.5343,3.5342,0,0,3.4724,3.4763,3.4849,3.489,3.4951,3.4971,3.4991,3.505,3.5069,3.5173,3.5161,3.5229,3.5354,3.5399,3.5438,3.5581,3.5569,3.5603,3.5671,3.5738,3.5753,3.5767,3.5818,3.5836,3.5615,3.5615,3.5615,0,3.4776,3.4885,3.4895,3.4976,3.5018,3.5004,3.5092,3.5132,3.5214,3.5244,3.5216,3.5372,3.5414,3.5541,3.5575,3.5608,3.5633,3.5595,3.575,3.5764,3.5777,3.5826,3.5845,3.5619,3.5619,3.5618,3.5618,0,3.4947,3.5023,3.5085,3.5162,3.5212,3.5296,3.532,3.537,3.537,3.5393,3.55,3.5549,3.5628,3.5659,3.5662,3.5787,3.577,3.5746,3.5695,3.58,3.5846,3.5865,3.5624,3.5623,3.5622,3.5621,0,0,3.5102,3.5182,3.5205,3.524,3.5307,3.5367,3.5451,3.5527,3.5569,3.5626,3.5698,3.5804,3.5782,3.5827,3.5834,3.5893,3.6003,3.5861,3.5863,3.5886,3.6145,3.6162,3.6183,3.5995,3.5999,3.6002,3.6139,0,3.5233,3.5379,3.539,3.5523,3.5593,3.5581,3.5655,3.5704,3.5729,3.5794,3.5821,3.5896,3.5861,3.5887,3.5945,3.5977,3.6055,3.5967,3.6063,3.6067,3.6047,3.6208,3.6227,3.6354,3.6157,3.616,3.6163,0,3.5405,3.5465,3.5604,3.566,3.5691,3.5756,3.5827,3.5888,3.5945,3.5959,3.6009,3.6008,3.6097,3.6043,3.6165,3.6105,3.6146,3.6168,3.6173,3.6182,3.6121,3.6221,3.6395,3.6414,3.6191,3.6189,3.6187,0,3.5503,3.562,3.5718,3.5748,3.5817,3.5863,3.5894,3.5947,3.5992,3.6055,3.6084,3.6157,3.6197,3.6254,3.6274,3.6232,3.6396,3.6343,3.641,3.641,3.6445,3.6443,3.6628,3.6472,3.6471,3.6471,3.6471,0,3.5648,3.5734,3.5763,3.5823,3.5919,3.5932,3.6028,3.6056,3.6104,3.6171,3.6166,3.6229,3.6251,3.6319,3.6336,3.6435,3.6453,3.6468,3.6471,3.6468,3.6466,3.6494,3.6486,3.6476,3.6475,3.6474,3.6473,0,3.5774,3.5797,3.5903,3.5959,3.5975,3.6044,3.6092,3.6151,3.6174,3.6259,3.628,3.6317,3.6396,3.6421,3.6518,3.6529,3.6645,3.6641,3.6625,3.6626,3.6691,3.6685,3.6901,3.693,3.6755,3.6757,3.6758,0,3.5865,3.593,3.5993,3.6036,3.6068,3.6139,3.6184,3.62,3.6248,3.6317,3.6369,3.6447,3.651,3.6638,3.6674,3.6749,3.6746,3.6817,3.6757,3.6752,3.6747,3.6743,3.6749,3.6828,3.6829,3.6831,3.6832,0,3.6023,3.6031,3.6096,3.6165,3.6218,3.6274,3.6327,3.6364,3.6387,3.6442,3.6522,3.6571,3.6668,3.6747,3.6822,3.6856,3.6849,3.685,3.687,3.6867,3.6855,3.6863,3.6655,3.6845,3.6844,3.6843,3.6842,3.6842,3.6135,3.6192,3.6245,3.6317,3.6358,3.6408,3.6466,3.6496,3.6562,3.6641,3.6647,3.6734,3.6791,3.689,3.6928,3.6998,3.6978,3.7006,3.7013,3.702,3.7025,3.6844,3.7012,3.7011,3.7011,3.7011,3.701,0,3.6293,3.6326,3.6392,3.6466,3.6523,3.6509,3.6568,3.6617,3.6692,3.6745,3.6806,3.6899,3.6975,3.7017,3.7093,3.7141,3.7139,3.716,3.7157,3.7165,3.7038,3.7014,3.716,3.716,3.716,3.716,3.716,3.716,3.6381,3.6477,3.6492,3.6609,3.6642,3.6725,3.676,3.6807,3.6848,3.6951,3.7013,3.7039,3.7088,3.7168,3.7237,3.7248,3.7276,3.7299,3.7308,3.7189,3.7174,3.7159,3.7136,3.7305,3.7305,3.7428,3.743,3.743]},{"header":{"parameterUnit":"m.s-1","parameterCategory":1,"la1":30.2991,"la2":30.254,"lo1":-89.0895,"lo2":-89.0444,"dy":0.0017,"dx":0.0017,"nx":28,"ny":28,"refTime":"2024-07-09T21:00:00:Z","depth":0,"parameterNumber":3,"parameterNumberName":"V-component_of_WINDS"},"data":[0,0,0,0,0,0,0,0,0,0,0,0,0,0,0,0,0,0,0,0,0,0,0,0,0,0,0,0,0,0,0,0,0,0,0,0,0,0,0,0,0,0,0,0,0,0,0,0,0,0,0,0,0,0,0,0,0,0,5.528,5.5282,0,5.5457,5.5459,5.5461,5.5464,5.5462,5.546,5.5458,5.5633,5.564,5.5647,0,0,0,0,0,0,0,0,0,0,0,0,0,5.4939,5.4945,5.528,5.5282,5.5285,5.5457,5.546,5.5462,5.5465,5.5462,5.5459,5.5457,5.5631,5.5639,5.5647,0,0,0,0,0,0,0,0,0,0,0,0,0,5.5099,5.4947,5.528,5.5307,5.5311,5.5457,5.546,5.5463,5.5465,5.5462,5.5459,5.5455,5.5629,5.5638,5.5648,5.5777,0,0,5.5679,5.5684,0,0,0,0,0,0,0,0,5.5089,5.5111,5.5301,5.5305,5.531,5.5435,5.5404,5.5568,5.5466,5.5406,5.5458,5.5454,5.557,5.5585,5.5625,5.5785,5.5793,5.568,5.5686,5.5691,5.5694,0,0,0,0,0,0,0,5.5078,5.5103,5.535,5.5303,5.5309,5.5308,5.5327,5.5435,5.5504,5.5411,5.5412,5.5433,5.5572,5.5615,5.5629,5.5795,5.568,5.5689,5.5695,5.5699,5.607,5.6073,0,0,0,0,0,0,5.5063,5.5094,5.5344,5.5355,5.519,5.5317,5.5339,5.5398,5.5503,5.5516,5.5436,5.5433,5.56,5.5617,5.5635,5.5793,5.5691,5.57,5.5706,5.6066,5.6071,5.6075,0,0,0,0,0,0,5.5055,5.5085,5.5337,5.5225,5.5257,5.5327,5.5394,5.5404,5.5447,5.5522,5.5534,5.5468,5.5598,5.5621,5.5742,5.5799,5.5705,5.5714,5.6062,5.6068,5.6073,5.6109,0,0,0,0,0,0,5.5046,5.5082,5.5133,5.5226,5.5263,5.5443,5.5398,5.541,5.5465,5.5463,5.5555,5.5567,5.5597,5.5727,5.5752,5.5811,5.5722,5.6057,5.6064,5.6071,5.6103,5.6115,5.6126,0,0,0,0,0,5.5033,5.5135,5.5136,5.5166,5.5329,5.5446,5.5467,5.5501,5.547,5.5521,5.5569,5.5564,5.5789,5.5739,5.5768,5.5831,5.6053,5.6062,5.607,5.6098,5.6113,5.6126,0,0,0,0,0,0,5.5045,5.5148,5.515,5.5285,5.5357,5.5447,5.5512,5.5516,5.5597,5.5591,5.5628,5.5648,5.5769,5.5812,5.5755,5.5961,5.5917,5.5932,5.5928,5.5943,5.5954,5.5941,5.573,0,0,0,0,0,5.5064,5.5152,5.5237,5.5348,5.5384,5.5442,5.5494,5.5515,5.559,5.562,5.5677,5.5748,5.5835,5.5891,5.5975,5.6109,5.6129,5.6166,5.6178,5.6187,5.6199,5.6272,5.629,5.6103,5.6103,5.6103,0,0,5.5102,5.5169,5.5223,5.5352,5.541,5.55,5.5468,5.5564,5.563,5.5634,5.5752,5.5796,5.5879,5.6007,5.6066,5.6046,5.6255,5.6197,5.6204,5.6211,5.6283,5.6301,5.6316,5.6109,5.6108,5.6107,0,0,5.5219,5.5279,5.5378,5.5438,5.5527,5.5565,5.5589,5.5678,5.5708,5.5828,5.5833,5.5911,5.606,5.6119,5.6168,5.6307,5.6306,5.6333,5.6392,5.6464,5.6478,5.6492,5.6541,5.6558,5.6345,5.6345,5.6345,0,5.5255,5.5392,5.5428,5.5526,5.5582,5.5591,5.5691,5.5747,5.5858,5.5896,5.5872,5.606,5.6116,5.6258,5.6292,5.6331,5.6359,5.6323,5.6474,5.6487,5.65,5.6548,5.6566,5.6348,5.6348,5.6347,5.6347,0,5.5433,5.5527,5.5597,5.5706,5.577,5.5868,5.5917,5.5977,5.5992,5.6031,5.6153,5.6221,5.6319,5.6354,5.6368,5.6498,5.6483,5.6466,5.6423,5.652,5.6566,5.6584,5.6352,5.6351,5.635,5.6349,0,0,5.5561,5.569,5.5715,5.5765,5.5864,5.5937,5.6035,5.6133,5.6184,5.626,5.6342,5.6468,5.6454,5.6509,5.653,5.6593,5.6699,5.6569,5.6571,5.659,5.6845,5.6857,5.6878,5.6698,5.6702,5.6705,5.6838,0,5.5688,5.5865,5.59,5.6052,5.614,5.615,5.6235,5.6304,5.6344,5.6423,5.6465,5.6554,5.6529,5.6563,5.6625,5.6672,5.675,5.6663,5.6774,5.6777,5.6753,5.6902,5.6915,5.7038,5.6856,5.6859,5.6862,0,5.586,5.5943,5.6105,5.6193,5.6231,5.6307,5.6399,5.6475,5.6553,5.6577,5.664,5.6654,5.6755,5.6707,5.6845,5.6785,5.6833,5.6862,5.6868,5.6879,5.6825,5.6917,5.7078,5.7096,5.689,5.6888,5.6886,0,5.5938,5.6089,5.6206,5.6248,5.6354,5.6407,5.6453,5.6528,5.6585,5.6665,5.6702,5.6792,5.6841,5.6909,5.6946,5.6909,5.7082,5.7037,5.7104,5.7103,5.714,5.7137,5.731,5.717,5.717,5.7169,5.7169,0,5.6076,5.6174,5.6242,5.6314,5.6424,5.6463,5.657,5.6615,5.6682,5.6761,5.6775,5.6848,5.6893,5.6973,5.7002,5.7112,5.7134,5.7155,5.7162,5.7155,5.7152,5.7186,5.7178,5.7174,5.7173,5.7172,5.7171,0,5.6181,5.6231,5.6358,5.6449,5.6473,5.655,5.6627,5.6696,5.6735,5.6836,5.6861,5.6923,5.7018,5.7062,5.7178,5.7198,5.7323,5.7323,5.7297,5.73,5.7363,5.7357,5.7565,5.7594,5.7434,5.7436,5.7437,0,5.6266,5.6343,5.6441,5.6497,5.6545,5.6633,5.6691,5.6732,5.6792,5.6887,5.6944,5.704,5.7119,5.7269,5.7323,5.7412,5.7415,5.7482,5.7428,5.7418,5.7416,5.7411,5.7418,5.7491,5.7493,5.7494,5.7495,0,5.6412,5.6433,5.6518,5.6611,5.6681,5.6756,5.683,5.6873,5.6925,5.6992,5.709,5.7151,5.7271,5.7365,5.7458,5.7503,5.7508,5.7511,5.7531,5.7524,5.7506,5.7517,5.7323,5.7506,5.7505,5.7504,5.7504,5.7503,5.651,5.6578,5.6659,5.6752,5.6813,5.6881,5.6951,5.7,5.7083,5.7185,5.7204,5.7308,5.7383,5.7509,5.7558,5.7638,5.7623,5.7652,5.7659,5.7666,5.7669,5.7493,5.7655,5.7655,5.7655,5.7655,5.7654,0,5.6656,5.6709,5.6795,5.6898,5.6972,5.6972,5.7053,5.7114,5.7206,5.7277,5.7355,5.7467,5.7559,5.7621,5.7713,5.7766,5.777,5.7789,5.7785,5.7796,5.7678,5.7652,5.7784,5.7784,5.7784,5.7784,5.7784,5.7784,5.6741,5.6857,5.6887,5.7032,5.7084,5.7187,5.7234,5.7297,5.7354,5.748,5.7557,5.7597,5.7664,5.7762,5.7846,5.7861,5.7894,5.7914,5.7929,5.7817,5.7804,5.7791,5.7766,5.7921,5.7921,5.804,5.8041,5.8042]}]]